STARLINK-34816

Last updated on Tue Sep 16 2025 00:02:08 GMT+0000 (Coordinated Universal Time)

1 65467U 25195K 25257.83692995 -.00399531 00000+0 -24336-2 0 9993 2 65467 53.1560 1.1454 0000492 263.7856 96.3110 15.77806058 2983
UTC large
Height (km)
Speed (km/s)
/
Latitude / Longitude
Inclination (degrees)
Orbital Period (minutes)
Azimuth
Elevation
Range (km)
Doppler Factor

Next 0 passes for location: London (51.5072 / 0.1276)

Sorry there are no passes over London.